TimeCST,TemperatureF,Dew PointF,Humidity,Sea Level PressureIn,VisibilityMPH,Wind Direction,Wind SpeedMPH,Gust SpeedMPH,PrecipitationIn,Events,Conditions,WindDirDegrees,DateUTC
12:15 AM,55.4,42.8,63,30.17,10.0,Calm,Calm,-,N/A,,Scattered Clouds,0,2012-11-20 06:15:00
12:35 AM,53.6,42.8,67,30.17,10.0,ENE,3.5,-,N/A,,Scattered Clouds,60,2012-11-20 06:35:00
12:55 AM,53.6,42.8,67,30.17,10.0,Calm,Calm,-,N/A,,Mostly Cloudy,0,2012-11-20 06:55:00
1:15 AM,53.6,42.8,67,30.16,10.0,Calm,Calm,-,N/A,,Overcast,0,2012-11-20 07:15:00
1:35 AM,53.6,42.8,67,30.17,10.0,Calm,Calm,-,N/A,,Mostly Cloudy,0,2012-11-20 07:35:00
2:15 AM,51.8,42.8,71,30.17,10.0,East,5.8,-,N/A,,Scattered Clouds,80,2012-11-20 08:15:00
2:35 AM,51.8,42.8,71,30.18,10.0,ENE,4.6,-,N/A,,Scattered Clouds,70,2012-11-20 08:35:00
6:15 AM,53.6,41.0,62,30.18,10.0,East,3.5,-,N/A,,Overcast,90,2012-11-20 12:15:00
6:35 AM,53.6,41.0,62,30.18,10.0,East,4.6,-,N/A,,Overcast,80,2012-11-20 12:35:00
6:55 AM,53.6,41.0,62,30.19,10.0,East,4.6,-,N/A,,Overcast,80,2012-11-20 12:55:00
7:15 AM,51.8,41.0,67,30.20,10.0,ENE,4.6,-,N/A,,Overcast,70,2012-11-20 13:15:00
7:35 AM,51.8,41.0,67,30.20,10.0,East,4.6,-,N/A,,Scattered Clouds,100,2012-11-20 13:35:00
7:55 AM,51.8,41.0,67,30.20,10.0,Calm,Calm,-,N/A,,Clear,0,2012-11-20 13:55:00
8:15 AM,51.8,42.8,71,30.21,10.0,Calm,Calm,-,N/A,,Clear,0,2012-11-20 14:15:00
8:35 AM,55.4,41.0,58,30.22,10.0,East,4.6,-,N/A,,Clear,80,2012-11-20 14:35:00
8:55 AM,59.0,41.0,51,30.22,10.0,ENE,5.8,-,N/A,,Clear,70,2012-11-20 14:55:00
9:15 AM,60.8,41.0,48,30.22,10.0,East,3.5,-,N/A,,Clear,80,2012-11-20 15:15:00
9:35 AM,62.6,41.0,45,30.21,10.0,SE,3.5,-,N/A,,Clear,130,2012-11-20 15:35:00
9:55 AM,64.4,41.0,42,30.21,10.0,Calm,Calm,-,N/A,,Clear,0,2012-11-20 15:55:00
10:15 AM,68.0,41.0,37,30.22,10.0,Calm,Calm,-,N/A,,Clear,0,2012-11-20 16:15:00
10:35 AM,69.8,42.8,38,30.21,10.0,Calm,Calm,-,N/A,,Clear,0,2012-11-20 16:35:00
10:55 AM,71.6,42.8,35,30.20,10.0,West,3.5,-,N/A,,Clear,260,2012-11-20 16:55:00
11:15 AM,73.4,44.6,36,30.20,10.0,Calm,Calm,-,N/A,,Clear,0,2012-11-20 17:15:00
11:35 AM,75.2,46.4,36,30.20,10.0,Calm,Calm,-,N/A,,Clear,0,2012-11-20 17:35:00
11:55 AM,77.0,46.4,34,30.19,10.0,NW,4.6,-,N/A,,Clear,320,2012-11-20 17:55:00
12:15 PM,77.0,46.4,34,30.17,10.0,West,3.5,-,N/A,,Clear,280,2012-11-20 18:15:00
12:35 PM,78.8,46.4,32,30.17,10.0,WSW,3.5,-,N/A,,Clear,240,2012-11-20 18:35:00
12:55 PM,78.8,46.4,32,30.16,10.0,SW,5.8,-,N/A,,Clear,230,2012-11-20 18:55:00
1:15 PM,78.8,50.0,36,30.15,10.0,West,4.6,-,N/A,,Clear,270,2012-11-20 19:15:00
1:35 PM,78.8,48.2,34,30.15,10.0,WSW,6.9,-,N/A,,Clear,250,2012-11-20 19:35:00
1:55 PM,78.8,48.2,34,30.14,10.0,West,6.9,-,N/A,,Clear,260,2012-11-20 19:55:00
2:15 PM,78.8,48.2,34,30.14,10.0,WSW,3.5,-,N/A,,Clear,240,2012-11-20 20:15:00
2:35 PM,78.8,48.2,34,30.13,10.0,WNW,6.9,-,N/A,,Clear,290,2012-11-20 20:35:00
2:55 PM,78.8,46.4,32,30.13,10.0,WNW,8.1,-,N/A,,Clear,290,2012-11-20 20:55:00
3:15 PM,78.8,46.4,32,30.13,10.0,NNW,5.8,-,N/A,,Clear,340,2012-11-20 21:15:00
3:35 PM,78.8,46.4,32,30.13,10.0,NW,5.8,-,N/A,,Clear,320,2012-11-20 21:35:00
3:55 PM,78.8,46.4,32,30.13,10.0,WNW,3.5,-,N/A,,Clear,290,2012-11-20 21:55:00
4:15 PM,77.0,46.4,34,30.13,10.0,NW,4.6,-,N/A,,Clear,310,2012-11-20 22:15:00
4:35 PM,75.2,46.4,36,30.12,10.0,West,4.6,-,N/A,,Clear,260,2012-11-20 22:35:00
4:55 PM,73.4,48.2,41,30.12,10.0,WSW,3.5,-,N/A,,Clear,250,2012-11-20 22:55:00
5:15 PM,71.6,48.2,43,30.13,10.0,WSW,3.5,-,N/A,,Clear,240,2012-11-20 23:15:00
5:35 PM,68.0,48.2,49,30.13,10.0,WSW,3.5,-,N/A,,Clear,240,2012-11-20 23:35:00
5:55 PM,64.4,48.2,56,30.14,10.0,Calm,Calm,-,N/A,,Clear,0,2012-11-20 23:55:00
6:15 PM,64.4,48.2,56,30.14,10.0,Calm,Calm,-,N/A,,Clear,0,2012-11-21 00:15:00
6:35 PM,60.8,50.0,68,30.15,10.0,Calm,Calm,-,N/A,,Clear,0,2012-11-21 00:35:00
6:55 PM,60.8,48.2,63,30.16,10.0,Calm,Calm,-,N/A,,Clear,0,2012-11-21 00:55:00
7:15 PM,59.0,48.2,67,30.16,10.0,Calm,Calm,-,N/A,,Clear,0,2012-11-21 01:15:00
7:35 PM,59.0,50.0,72,30.17,10.0,Calm,Calm,-,N/A,,Clear,0,2012-11-21 01:35:00
7:55 PM,59.0,50.0,72,30.17,10.0,NNW,3.5,-,N/A,,Clear,330,2012-11-21 01:55:00
8:15 PM,59.0,50.0,72,30.17,10.0,Calm,Calm,-,N/A,,Clear,0,2012-11-21 02:15:00
8:35 PM,57.2,48.2,72,30.18,10.0,NW,3.5,-,N/A,,Clear,320,2012-11-21 02:35:00
8:55 PM,57.2,50.0,77,30.18,10.0,Calm,Calm,-,N/A,,Clear,0,2012-11-21 02:55:00
9:15 PM,57.2,48.2,72,30.19,10.0,Calm,Calm,-,N/A,,Clear,0,2012-11-21 03:15:00
9:35 PM,53.6,46.4,77,30.20,10.0,Calm,Calm,-,N/A,,Clear,0,2012-11-21 03:35:00
9:55 PM,51.8,44.6,76,30.19,10.0,North,3.5,-,N/A,,Clear,360,2012-11-21 03:55:00
10:15 PM,51.8,46.4,82,30.20,10.0,Calm,Calm,-,N/A,,Clear,0,2012-11-21 04:15:00
10:35 PM,50.0,44.6,82,30.20,10.0,North,4.6,-,N/A,,Clear,350,2012-11-21 04:35:00
10:55 PM,50.0,46.4,87,30.20,10.0,North,5.8,-,N/A,,Clear,350,2012-11-21 04:55:00
11:15 PM,51.8,46.4,82,30.20,10.0,North,3.5,-,N/A,,Clear,360,2012-11-21 05:15:00
11:35 PM,51.8,46.4,82,30.20,10.0,North,3.5,-,N/A,,Clear,350,2012-11-21 05:35:00
11:55 PM,51.8,46.4,82,30.20,10.0,North,4.6,-,N/A,,Clear,350,2012-11-21 05:55:00